TimeMST,TemperatureF,Dew PointF,Humidity,Sea Level PressureIn,VisibilityMPH,Wind Direction,Wind SpeedMPH,Gust SpeedMPH,PrecipitationIn,Events,Conditions,WindDirDegrees,DateUTC
12:54 AM,50.0,18.0,28,29.90,10.0,South,5.8,-,N/A,,Clear,190,2013-04-05 07:54:00
1:54 AM,43.0,19.9,40,29.91,10.0,Calm,Calm,-,N/A,,Clear,0,2013-04-05 08:54:00
2:54 AM,35.1,19.9,54,29.95,10.0,Calm,Calm,-,N/A,,Clear,0,2013-04-05 09:54:00
3:54 AM,33.1,19.9,59,29.94,10.0,Calm,Calm,-,N/A,,Clear,0,2013-04-05 10:54:00
4:54 AM,28.0,17.1,63,29.96,10.0,ENE,3.5,-,N/A,,Partly Cloudy,60,2013-04-05 11:54:00
5:54 AM,32.0,19.9,61,29.96,10.0,NE,3.5,-,N/A,,Clear,40,2013-04-05 12:54:00
6:54 AM,30.9,19.9,64,29.98,10.0,Calm,Calm,-,N/A,,Clear,0,2013-04-05 13:54:00
7:54 AM,52.0,23.0,32,29.91,10.0,South,9.2,-,N/A,,Mostly Cloudy,190,2013-04-05 14:54:00
8:54 AM,55.0,25.0,31,29.92,10.0,SSW,12.7,21.9,N/A,,Mostly Cloudy,210,2013-04-05 15:54:00
9:54 AM,59.0,26.1,28,29.91,10.0,WSW,19.6,25.3,N/A,,Mostly Cloudy,240,2013-04-05 16:54:00
10:54 AM,62.1,26.1,25,29.88,10.0,SW,23.0,29.9,N/A,,Partly Cloudy,220,2013-04-05 17:54:00
11:54 AM,64.0,18.0,17,29.86,10.0,WSW,15.0,28.8,N/A,,Clear,240,2013-04-05 18:54:00
12:54 PM,66.0,19.0,17,29.81,10.0,WSW,10.4,25.3,N/A,,Clear,250,2013-04-05 19:54:00
1:54 PM,66.9,12.0,12,29.82,10.0,SW,12.7,32.2,N/A,,Clear,230,2013-04-05 20:54:00
2:54 PM,66.9,15.1,14,29.84,10.0,West,11.5,24.2,N/A,,Clear,270,2013-04-05 21:54:00
3:54 PM,66.9,12.0,12,29.85,10.0,West,12.7,23.0,N/A,,Clear,260,2013-04-05 22:54:00
4:54 PM,64.9,10.9,12,29.88,10.0,WSW,11.5,20.7,N/A,,Clear,250,2013-04-05 23:54:00
5:54 PM,62.1,12.0,14,29.88,10.0,WSW,10.4,-,N/A,,Clear,250,2013-04-06 00:54:00
6:54 PM,55.9,16.0,21,29.91,10.0,WSW,4.6,-,N/A,,Clear,250,2013-04-06 01:54:00
7:54 PM,46.0,16.0,30,29.89,10.0,SW,6.9,-,N/A,,Clear,230,2013-04-06 02:54:00
8:54 PM,44.1,18.0,35,29.91,10.0,SW,5.8,-,N/A,,Clear,230,2013-04-06 03:54:00
9:54 PM,34.0,16.0,48,29.95,10.0,ENE,5.8,-,N/A,,Clear,60,2013-04-06 04:54:00
10:54 PM,33.1,17.1,52,29.94,10.0,NE,3.5,-,N/A,,Clear,50,2013-04-06 05:54:00
11:54 PM,32.0,17.1,54,29.94,10.0,Calm,Calm,-,N/A,,Clear,0,2013-04-06 06:54:00